Regional Weather Roundup
Issued by NWS Jackson, KY

Home | Current Version | Previous Version | Graphics & Text | Print | Product List | Glossary On
Versions: 1 2 3 4 5 6 7 8 9 10 11 12 13 14 15 16 17 18 19 20 21 22 23 24 25 26 27 28 29 30 31 32 33 34 35 36 37 38 39 40 41 42 43 44 45 46 47 48 49 50
068
ASUS43 KJKL 301710
RWRJKL

EAST KENTUCKY HOURLY WEATHER ROUNDUP
NATIONAL WEATHER SERVICE JACKSON KY
100 PM EDT TUE AUG 30 2016

NOTE: "FAIR" INDICATES FEW OR NO CLOUDS BELOW 12,000 FEET WITH
NO SIGNIFICANT WEATHER AND/OR OBSTRUCTIONS TO VISIBILITY.

* THESE REPORTS ARE NOT UNDER NWS QUALITY CONTROL AND MAY NOT
  REPORT WEATHER SUCH AS PRECIPITATION AND FOG.

KYZ079-080-083-085-087-088-110-112-115-119-120-301800
...EASTERN KENTUCKY...

CITY           SKY/WX    TMP DP  RH WIND       PRES   REMARKS
JACKSON        MOSUNNY   84  71  65 CALM      30.16S
LONDON         SUNNY     86  66  51 VRB3      30.15S
SOMERSET*      SUNNY     84  68  58 CALM      30.14F
MONTICELLO*    SUNNY    N/A N/A N/A NW9       30.14F
WILLIAMSBURG*  SUNNY     86  70  58 SE5       30.14F HX  90
MIDDLESBORO*   SUNNY     87  69  55 S3        30.14F HX  90
HARLAN APT*    SUNNY     88  64  45 CALM      30.16F
PIKE CO APT*   CLOUDY    82  73  73 NW3       30.16F
BIG SANDY APT* SUNNY     85  71  62 N3        30.16S HX  91
MOREHEAD APT*  SUNNY     86  64  48 SE5       30.16F
ASHLAND*       SUNNY     88  66  48 S3        30.11  HX  90
$$

KYZ035-036-041-042-044-050-067-078-099-301800
...CENTRAL KENTUCKY...

CITY           SKY/WX    TMP DP  RH WIND       PRES   REMARKS
MT STERLING*   MOSUNNY   86  70  58 S3        30.16F HX  90
FLEMING/MASON* SUNNY     85  64  49 CALM      30.16F
DANVILLE*      MOSUNNY   84  72  65 SE3       30.15S
LEXINGTON      MOSUNNY   91  68  46 NE7       30.13F HX  95
FRANKFORT      MOSUNNY   87  69  54 SE3       30.12F HX  91
LOUISVILLE     MOSUNNY   90  68  48 SE6       30.11F HX  94
LEBANON*         N/A     86  72  62 NE6       30.13F HX  92
GLASGOW*       SUNNY     87  72  60 N3        30.11F HX  94
BOWLING GREEN  SUNNY     89  72  56 CALM      30.10F HX  96
$$

KYZ091>093-OHZ055-061-077-WVZ005-015-034-035-042-301800
...SOUTHERN OHIO/WEST VIRGINIA...

CITY           SKY/WX    TMP DP  RH WIND       PRES   REMARKS
COVINGTON      MOSUNNY   85  67  54 VRB5      30.15F
COLUMBUS       MOSUNNY   84  61  45 N5        30.15F
DAYTON         PTSUNNY   84  65  52 CALM      30.17F
WILMINGTON     SUNNY     83  63  50 E3        30.16F
HUNTINGTON     SUNNY     87  69  54 E7        30.13F HX  91
CHARLESTON     MOSUNNY   88  69  53 N6        30.13F HX  92
PINEVILLE*     MOSUNNY   87  61  41 MISG      30.22F
BECKLEY        SUNNY     80  64  58 SE13      30.22F
BLUEFIELD      MOSUNNY   77  65  66 VRB6      30.25F
LOGAN CO APT*    N/A     84  70  61 CALM      30.16S
$$

VAZ002-007-008-TNZ017-027-036-066-071-301800
...SOUTHWEST VIRGINIA/EAST TENNESSEE...

CITY           SKY/WX    TMP DP  RH WIND       PRES   REMARKS
WISE*          SUNNY     82  55  39 S6        30.24F
JONESVILLE*      N/A     86  68  54 NE6       30.17F
ABINGDON*      PTSUNNY   86  65  50 CALM      30.19F
BRISTOL        MOSUNNY   87  66  49 E6        30.16F
MORRISTOWN*    SUNNY     88  66  48 VRB5      30.13F HX  90
SEVIERVILLE*     N/A     88  64  45 E6        30.11F
KNOXVILLE      MOSUNNY   88  65  46 W6        30.11F HX  90
OAK RIDGE      SUNNY     87  67  51 VRB3      30.13F HX  90
CROSSVILLE     PTSUNNY   84  66  54 VRB3      30.18F
NASHVILLE      SUNNY     90  68  48 CALM      30.09F HX  93
$$

...KEY TO REMARKS...
VSB - VISIBILITY IN MILES
WCI - WIND CHILL INDEX
HX  - HEAT INDEX

$$




USA.gov is the U.S. government's official web portal to all federal, state and local government web resources and services.